Tracking 27124 objects as of 31-Mar-2023
HD Live streaming from Space Station
objects crossing your sky now

SL-8 R/B

Track SL-8 R/B now!
10-day predictions


NORAD ID: 21131
Int'l Code: 1991-013B
Perigee: 922.5 km
Apogee: 1,017.0 km
Inclination: 82.8 °
Period: 104.3 minutes
Semi major axis: 7340 km
RCS: 7.7831 m2 (large)
Launch date: February 26, 1991
Source: Commonwealth of Independent States (former USSR) (CIS)
Launch site: PLESETSK MISSILE AND SPACE COMPLEX (PKMTR)

Note: This is a ROCKET BODY
Your satellite tracking list
Your tracking list is empty




NASA's NSSDC Master Catalog

Two Line Element Set (TLE):
1 21131U 91013B   23090.28217289  .00000141  00000-0  11838-3 0  9995
2 21131  82.8315 359.9732 0064398 155.1670 205.2612 13.80355808616349
Source of the keplerian elements: AFSPC